Probability
3 5 10 12 9 3 0 0 0 0 0 0 0 0 0 0 0 0 0 0 0 0 0 1 2 1 0 0 0 0 0 0 0 0 1 2 2 1 0 0 1 2 2 1 0 0 0 0 0
4 7 13 13 6 1 0 0 0 0 0 0 0 0 0 0 0 0 0 0 0 0 0 1 2 2 1 1 0 0 0 0 0 0 0 1 1 0 0 0 1 1 1 0 0 0 0 0 0
9 14 18 11 3 0 0 0 0 0 0 0 0 0 0 0 0 0 0 0 0 0 0 1 2 3 2 2 1 0 0 0 0 0 0 1 1 0 0 0 0 0 0 0 0 0 0 0 0
18 21 18 7 1 0 0 0 0 0 0 0 0 1 1 0 0 0 0 0 0 0 0 1 2 3 2 2 1 0 0 0 0 0 0 1 1 0 0 0 0 0 0 0 0 0 0 0 0
24 20 11 3 0 0 0 0 0 0 0 0 1 2 2 1 0 0 0 0 0 0 0 1 2 2 1 1 1 0 0 0 0 0 0 1 1 0 0 0 0 0 0 0 0 0 0 0 0
19 12 4 0 0 0 0 0 0 0 0 0 1 2 2 1 0 0 0 0 0 0 0 0 1 1 0 0 0 0 0 0 0 0 0 0 0 0 0 0 0 0 0 0 0 0 0 0 0
9 5 1 0 0 0 0 0 0 0 0 0 0 1 2 2 1 0 0 0 0 0 0 0 0 0 0 0 0 0 0 0 0 0 0 0 0 0 0 0 0 0 0 0 0 0 0 0 1
3 2 1 0 0 0 0 0 0 0 0 0 0 1 2 2 1 0 0 0 0 0 0 0 0 0 0 0 0 0 0 0 0 0 0 0 0 0 0 0 0 0 0 0 0 0 0 1 2
2 2 1 0 0 0 0 0 0 0 0 0 0 0 2 2 1 0 0 0 0 0 0 0 0 0 0 0 0 0 0 0 0 0 0 0 0 0 1 0 0 0 0 0 0 0 0 2 3
2 1 0 0 0 0 0 0 0 0 0 0 0 1 2 2 1 0 0 0 0 0 0 0 0 0 0 0 0 0 0 0 0 0 0 0 0 0 1 1 1 0 0 0 0 0 0 1 1
2 1 0 0 0 0 0 0 0 0 0 0 1 3 4 3 1 0 0 0 0 0 0 0 0 0 0 0 0 0 0 0 0 0 0 0 0 0 0 1 2 1 0 0 0 0 0 0 0
1 0 0 0 0 0 0 0 0 0 0 0 1 4 4 3 1 0 0 0 0 0 0 0 0 0 0 0 0 0 0 0 0 1 1 1 1 0 1 1 2 2 1 1 1 0 0 0 0
0 0 0 0 0 0 0 0 0 0 0 0 1 3 4 3 1 0 0 0 0 0 0 0 1 1 0 0 0 0 0 0 0 1 2 2 2 2 2 1 1 2 2 2 2 1 0 0 0
0 0 0 0 0 0 0 0 0 0 0 0 1 2 3 3 1 1 0 0 1 1 1 1 2 2 1 0 0 0 0 0 0 1 1 2 2 2 2 1 0 1 2 2 2 1 0 0 0
0 0 0 0 0 0 0 0 0 0 0 0 0 2 3 3 3 2 1 1 2 2 1 1 2 2 1 0 0 0 0 0 0 0 0 1 1 1 1 0 0 0 1 1 1 1 0 0 0
0 0 0 0 0 0 0 0 0 0 0 0 1 2 3 3 2 2 2 3 3 2 1 0 1 1 1 1 1 1 1 0 0 0 0 0 0 0 0 0 0 0 0 0 0 0 0 0 0
0 0 0 0 0 1 1 1 1 0 0 0 1 2 3 1 1 1 3 3 3 2 2 1 1 1 1 2 3 2 2 1 1 0 0 0 0 0 0 0 0 0 0 0 0 0 0 1 1
0 0 0 0 0 1 1 1 0 0 0 1 1 2 2 1 0 1 2 3 3 4 4 3 3 3 3 3 3 3 3 3 2 1 0 0 0 0 0 0 0 0 0 0 0 0 0 1 2
0 0 0 0 0 1 1 0 0 0 1 2 2 2 2 2 1 2 3 3 5 7 7 6 6 6 6 6 5 4 4 3 3 3 2 1 0 1 1 0 0 1 1 0 1 1 1 1 1
0 0 0 0 0 0 0 0 0 0 1 2 3 2 3 3 2 3 3 4 7 10 10 9 8 8 9 8 8 7 5 4 4 5 4 3 2 2 1 0 0 1 1 2 2 3 2 1 1
0 0 0 0 0 0 0 0 0 0 1 2 3 3 3 4 3 3 3 4 7 11 13 12 12 12 12 11 9 8 6 6 6 7 6 4 3 2 1 0 0 1 2 4 5 4 3 3 2
0 0 0 0 0 0 0 0 0 0 0 2 4 4 4 5 5 4 3 2 4 7 11 13 15 17 17 14 11 9 8 7 6 7 6 4 3 3 2 1 1 1 3 5 6 4 3 3 3
0 0 0 0 0 0 0 0 0 0 0 2 5 6 6 6 6 5 3 2 1 3 6 11 16 20 20 17 13 12 11 9 8 7 6 5 4 4 3 4 4 5 5 5 5 4 4 4 4
0 0 0 0 0 0 0 0 0 0 0 2 4 7 8 7 6 5 5 4 2 2 3 8 14 18 19 18 16 15 15 14 12 9 8 8 8 7 7 8 9 10 8 6 5 5 5 6 6
0 0 0 0 0 0 0 0 1 1 1 2 3 6 8 8 6 5 7 8 7 5 5 8 14 17 16 17 18 18 18 17 15 13 12 13 13 11 11 12 14 12 9 7 6 6 6 7 8
0 0 0 0 0 0 0 0 1 2 1 2 2 3 7 9 8 6 8 10 11 11 10 12 18 19 16 15 18 21 20 17 16 17 18 18 16 14 12 13 13 11 8 7 7 7 8 9 11
0 0 0 0 0 0 0 0 2 2 1 1 1 2 6 11 11 11 12 12 14 16 17 19 23 24 21 17 18 21 19 18 20 22 23 20 16 13 11 11 11 10 9 9 10 10 11 12 13
0 0 0 0 0 0 0 0 2 2 2 2 1 2 7 11 14 16 17 18 19 20 21 21 24 26 23 19 19 19 17 17 22 25 24 21 17 13 12 12 11 12 13 16 17 15 14 15 15
0 0 0 0 0 0 0 0 2 3 3 3 3 5 8 11 13 16 20 23 24 22 20 20 23 25 23 21 20 18 15 17 21 23 23 22 21 18 17 15 13 14 18 21 21 19 18 18 18
0 0 0 0 0 0 0 0 1 3 3 3 4 6 10 11 12 15 20 23 24 21 19 19 21 23 23 23 21 18 16 17 20 21 21 24 25 23 20 17 14 14 18 23 21 19 20 21 21
Wind_Speed
10 9 5 5 5 4 11 9 8 8 7 8 8 7 8 9 8 9 7 7 7 8 9 11 10 11 12 12 12 12 12 13 13 13 13 13 13 13 13 13 13 13 13 13 12 12 13 13 12
8 6 6 6 1 8 11 9 10 9 8 7 7 7 8 9 8 8 7 8 8 8 9 11 11 11 11 12 12 12 12 13 12 12 12 12 12 12 12 12 12 12 12 12 12 12 12 12 12
6 6 6 1 8 10 10 9 9 9 7 5 6 7 7 7 7 6 8 9 8 9 10 12 11 12 11 12 12 12 12 12 12 12 11 11 11 11 12 11 11 11 11 11 11 11 11 11 11
5 6 4 3 12 12 9 8 7 7 7 5 6 8 7 6 5 8 10 9 9 10 10 13 10 11 12 12 12 12 12 12 11 11 11 11 10 10 10 10 10 10 10 10 10 11 10 9 9
5 4 2 9 12 10 9 7 6 6 6 7 6 9 9 7 9 11 10 9 9 9 9 12 11 11 11 12 12 12 11 11 11 10 10 10 10 10 9 9 9 9 9 9 9 9 8 8 8
4 2 5 10 11 9 8 6 6 7 8 7 7 9 8 8 10 10 10 9 9 9 10 11 12 11 11 11 11 11 11 10 10 9 9 9 9 9 8 8 8 8 8 8 8 8 7 7 7
4 3 7 10 9 9 7 5 5 7 8 6 5 8 9 10 10 10 10 9 9 9 9 9 9 10 11 10 10 10 9 9 9 9 9 8 8 8 8 7 7 8 8 7 7 7 7 7 7
4 2 7 9 8 9 6 5 5 5 8 7 4 6 9 12 11 10 10 9 8 8 8 8 7 7 8 9 10 9 9 8 8 8 8 8 8 8 7 8 7 7 7 6 6 6 6 6 6
5 1 8 8 7 7 6 5 6 5 8 7 5 7 13 15 12 11 10 9 8 7 6 6 6 6 5 7 9 8 8 8 7 8 8 6 5 6 6 8 7 6 5 5 5 4 5 6 8
3 5 9 6 5 5 5 4 5 6 8 8 9 11 15 14 13 11 10 9 9 8 7 6 5 5 5 4 5 4 4 5 4 4 5 4 4 3 5 8 6 6 5 5 5 4 7 7 5
3 6 6 4 4 3 4 5 4 4 5 7 11 15 16 14 12 10 9 9 8 8 7 6 5 4 4 3 3 2 2 3 4 5 4 3 3 3 4 4 5 5 6 4 5 5 2 2 2
3 5 4 4 3 2 3 4 4 2 6 7 11 16 16 14 12 10 9 8 7 7 7 6 6 4 3 3 3 3 3 3 3 4 3 3 2 2 3 2 2 3 2 2 1 1 2 1 1
2 4 5 4 3 3 4 3 3 5 6 9 13 15 15 13 11 10 9 8 7 7 7 6 5 4 3 3 2 3 3 3 3 3 3 2 2 3 3 2 1 1 2 2 2 1 1 1 2
4 3 4 4 5 5 4 4 3 5 8 11 13 14 13 12 11 10 9 8 8 7 6 6 5 5 4 3 2 2 3 3 2 2 3 2 2 2 2 2 1 1 1 1 1 1 1 1 0
1 2 5 5 3 3 3 4 4 6 8 11 12 12 12 11 11 10 10 9 8 7 7 6 6 5 5 4 3 3 3 3 2 2 3 2 2 2 1 1 1 1 1 1 1 1 1 1 1
4 3 3 5 2 2 4 4 7 7 8 10 10 10 10 10 10 10 9 9 8 8 7 6 5 6 6 4 3 3 2 3 2 2 2 2 2 2 2 1 1 1 1 1 1 1 0 0 0
3 1 2 4 2 1 3 2 6 6 7 8 9 10 10 10 10 10 10 9 9 8 8 7 6 6 6 5 4 3 3 2 2 2 2 2 2 3 2 1 1 1 1 1 1 1 1 0 1
2 3 2 2 2 2 2 1 3 5 6 6 8 8 9 10 10 10 10 10 9 8 8 7 7 6 6 5 4 3 3 3 3 3 2 3 3 3 2 2 2 1 1 1 0 0 0 1 1
4 4 3 3 2 2 1 0 3 4 5 6 7 8 9 9 9 9 10 10 9 9 9 8 8 7 6 4 4 4 4 3 3 3 3 3 3 3 2 2 2 2 1 1 2 1 1 1 0
4 5 3 2 2 2 1 1 3 4 5 5 5 6 7 8 9 9 10 10 10 10 10 9 9 8 8 5 4 4 3 3 3 3 3 4 4 4 4 3 3 3 2 3 2 2 2 1 1
5 5 5 4 2 4 4 3 4 5 5 4 4 5 6 7 9 10 10 11 11 11 11 9 9 9 8 7 5 4 4 3 4 4 4 4 4 4 3 3 3 3 4 2 3 3 3 2 2
5 3 5 5 6 3 5 3 3 4 5 5 5 5 6 7 9 9 11 11 11 11 10 10 9 9 8 8 7 7 5 5 4 3 3 4 4 4 4 4 4 4 3 3 4 3 3 3 3
5 4 5 6 7 7 5 6 2 4 3 4 5 5 5 6 8 9 10 10 10 10 10 9 9 8 8 8 8 8 7 5 4 4 4 4 4 4 4 4 4 4 4 3 3 3 4 3 3
4 6 6 8 8 7 4 7 1 1 1 2 3 5 5 6 7 8 8 8 8 9 9 9 9 9 9 9 9 9 8 7 6 5 5 5 4 4 5 5 4 4 4 4 4 4 5 4 3
7 8 7 7 6 4 1 5 1 3 2 3 1 3 5 6 7 7 8 8 7 8 9 9 10 9 9 9 9 9 9 9 8 7 6 5 4 4 5 5 4 4 4 4 4 5 4 5 5
6 9 8 8 6 3 4 4 1 2 2 1 1 2 4 5 6 6 7 7 7 8 9 9 9 9 9 9 9 9 9 8 7 8 7 6 5 4 4 5 5 5 5 6 5 5 5 4 5
7 7 8 10 10 9 4 3 3 2 1 2 2 3 3 4 4 5 6 7 7 8 8 8 8 9 9 9 9 8 9 8 7 7 8 6 5 5 5 5 6 6 6 6 6 5 5 5 6
7 7 7 9 8 10 8 7 4 2 1 2 2 2 2 2 3 4 5 5 5 6 6 7 7 8 8 9 8 7 8 9 8 8 7 6 6 6 6 6 7 6 6 6 6 6 5 6 6
7 8 7 7 9 10 9 3 3 1 0 1 1 2 2 1 2 3 3 4 4 4 5 5 6 6 7 7 7 7 8 8 8 8 8 8 7 7 7 7 7 7 7 7 7 7 6 7 7
7 8 9 9 8 9 10 3 3 1 0 1 2 3 3 2 1 2 3 4 3 3 4 4 4 4 5 5 7 8 8 8 8 9 9 8 8 8 8 8 8 8 8 7 8 8 7 7 7
Wind_Direction
181 184 206 232 226 93 68 67 73 80 73 64 61 56 55 40 33 74 90 99 103 106 108 112 106 110 111 112 112 113 113 113 112 110 111 111 113 113 114 113 112 111 110 110 112 114 114 114 116
174 183 226 238 11 80 72 70 76 71 86 96 79 74 72 66 60 92 108 109 113 107 106 102 105 111 113 113 113 113 112 113 113 112 113 114 113 113 114 111 110 110 110 111 112 114 114 114 115
179 222 260 273 56 61 72 75 83 92 97 93 85 65 58 70 85 96 108 121 115 103 102 100 106 108 113 114 113 113 111 112 113 115 115 114 113 112 111 112 112 113 115 117 117 118 117 116 118
215 224 232 68 71 63 72 85 99 107 99 88 96 86 76 64 84 103 118 122 113 108 108 104 107 108 109 112 114 114 113 113 113 117 118 115 115 112 109 111 113 117 119 120 120 120 119 119 120
240 256 111 82 74 72 76 87 101 92 89 92 94 94 89 87 103 114 120 118 114 109 105 107 108 110 111 111 114 116 117 117 117 117 121 120 118 115 112 111 113 117 121 122 122 122 123 124 125
252 262 64 75 78 80 80 89 99 93 96 102 104 103 91 114 121 121 120 116 112 110 107 109 113 113 112 112 111 115 116 117 120 121 118 119 118 117 118 117 116 116 120 125 128 126 127 128 129
311 24 64 75 82 84 80 89 87 94 99 97 108 103 114 128 122 123 119 114 111 110 111 113 120 120 121 117 115 117 118 117 120 124 122 123 123 122 122 122 121 120 122 127 129 134 134 134 136
300 321 78 78 79 82 96 103 87 88 93 104 120 112 128 134 132 128 122 118 114 112 113 115 120 122 130 127 123 123 124 122 122 122 124 127 135 137 139 139 124 125 128 131 130 137 143 147 146
266 25 66 64 70 86 113 114 102 97 111 110 92 90 118 134 139 137 131 126 123 122 122 121 122 126 126 126 128 136 137 134 143 135 138 162 148 138 147 110 121 127 133 133 128 139 153 167 165
292 45 54 43 52 84 117 115 125 136 127 124 116 113 127 142 150 150 145 141 139 136 133 129 129 130 132 128 131 144 143 140 142 125 142 144 124 120 116 123 131 131 140 145 137 158 188 206 166
9 35 42 57 58 94 125 127 135 134 127 139 144 142 146 153 158 156 149 146 142 140 139 137 134 136 134 128 137 134 130 131 136 130 136 130 143 137 133 136 145 151 167 157 153 186 179 144 107
37 42 27 49 76 116 120 117 116 96 69 111 141 148 154 162 164 161 155 151 146 145 148 144 140 140 136 129 136 148 147 144 138 135 155 144 134 129 117 132 132 154 146 136 155 136 115 107 155
59 42 49 67 101 111 117 114 99 90 101 124 140 152 160 164 165 162 157 157 159 160 159 150 149 147 145 144 157 143 145 146 136 140 148 155 148 139 132 128 133 156 129 160 163 158 148 196 194
34 44 74 91 110 123 122 119 129 104 127 140 151 160 165 168 168 165 169 172 171 170 167 158 163 158 157 157 156 145 148 144 144 147 143 167 149 131 149 153 155 150 176 135 180 157 189 249 274
230 164 123 100 104 117 165 131 105 121 144 153 159 164 167 172 174 177 178 179 176 172 172 169 172 167 168 171 165 156 157 153 152 143 147 172 166 144 169 152 181 149 180 162 219 186 211 217 182
218 224 127 104 114 137 248 73 96 137 158 161 164 167 171 178 184 182 180 181 175 174 173 177 179 171 172 179 179 172 168 160 167 165 161 176 180 179 202 181 172 139 193 203 216 244 231 7 285
208 316 41 105 120 207 256 52 110 150 166 166 171 174 178 181 189 186 184 183 179 179 177 179 184 182 181 181 183 187 172 176 187 185 178 168 184 187 207 189 113 197 199 218 266 62 313 273 304
348 338 355 9 76 266 260 64 124 159 173 171 176 180 187 190 191 188 187 183 181 181 183 184 187 191 191 187 183 190 186 186 192 188 175 182 185 195 211 189 168 227 210 202 217 65 334 296 308
314 310 331 15 43 278 282 161 139 156 177 180 188 190 192 194 187 185 186 185 183 186 189 192 196 188 191 191 195 195 195 192 189 187 176 189 204 199 211 228 174 219 210 221 225 212 202 215 195
263 282 316 37 60 291 317 302 136 158 181 188 190 194 196 190 186 185 186 186 190 190 195 195 196 192 195 194 200 203 207 202 199 203 185 200 205 209 200 206 217 209 207 207 212 211 257 254 219
259 295 323 328 296 224 259 200 163 166 179 187 196 197 195 194 193 188 191 193 195 197 197 196 197 194 196 196 194 195 194 205 194 194 193 201 207 212 221 207 225 223 232 214 220 220 225 251 241
259 313 301 286 272 271 276 279 143 174 187 204 212 210 204 200 200 194 193 197 200 199 196 197 198 197 194 196 201 203 203 204 204 199 197 201 210 215 216 217 224 234 240 225 229 212 233 239 251
294 306 280 273 269 268 254 274 139 161 204 216 218 216 211 202 199 195 197 197 199 198 196 193 194 196 195 198 201 207 216 214 208 201 202 215 211 216 219 215 223 229 238 236 244 234 238 237 246
254 243 235 241 251 252 264 275 249 109 319 283 211 208 208 198 194 192 192 192 196 195 196 193 189 195 196 200 205 210 217 218 218 217 215 214 215 211 212 213 217 224 233 226 228 229 226 240 250
238 253 247 238 235 250 175 261 350 33 11 327 284 189 191 191 187 188 188 188 193 194 196 194 190 195 199 202 206 210 214 216 221 226 222 225 224 211 207 214 213 222 225 230 231 229 239 232 236
240 259 269 278 280 270 220 249 109 54 41 16 41 122 160 177 182 185 186 188 194 197 197 196 194 197 199 202 206 211 213 217 220 223 234 227 230 225 209 212 216 219 225 231 231 237 229 225 233
241 248 272 275 275 275 253 238 206 183 134 78 83 96 125 161 175 181 184 187 192 196 196 195 194 199 201 202 204 211 215 222 224 221 224 233 229 225 214 215 218 220 222 230 235 239 238 235 239
264 262 256 263 269 267 254 246 240 221 18 63 77 88 96 142 162 174 180 183 187 191 193 196 197 201 203 204 209 210 215 221 226 229 227 231 232 232 225 219 220 222 222 224 231 236 233 237 242
216 229 251 260 269 273 271 261 64 129 3 358 25 65 81 115 150 160 162 168 177 182 185 190 196 202 205 210 212 221 219 220 222 225 229 227 229 227 228 228 227 227 226 225 228 237 236 238 242
246 244 245 253 255 261 275 269 101 120 47 0 21 52 63 69 116 143 149 153 167 179 186 185 193 203 214 217 217 220 224 225 225 226 229 228 228 229 227 229 229 230 229 227 229 234 234 237 241